CAPE
0 0 0 0 0 0 0 0 0 0 0 0 0 0 0 0 0 0 0 0 0 0 0 0 0 0 0 0 0 0 0 0 0 0 0 0 0 0 0 0 0 0 0 0
0 0 0 0 0 0 0 0 0 0 0 0 0 0 0 0 0 0 0 0 0 0 0 0 0 0 0 0 0 0 0 0 0 0 0 0 0 0 0 0 0 0 0 0
0 0 0 0 0 0 0 0 0 0 0 0 0 0 0 0 0 0 0 0 0 0 0 0 0 0 0 0 0 0 0 0 0 0 0 0 0 0 0 0 0 0 0 0
0 0 0 0 0 0 0 0 0 0 0 0 0 0 0 0 0 0 0 0 0 0 0 0 0 0 0 0 0 0 0 0 0 0 0 0 0 0 0 0 0 0 0 0
0 0 0 0 0 0 0 0 0 0 0 0 0 0 0 0 0 0 0 0 0 0 0 0 0 0 0 0 0 0 0 0 0 0 0 0 0 0 0 0 0 0 0 0
0 0 0 0 0 0 0 0 0 0 0 0 0 0 0 0 0 0 0 0 0 0 0 0 0 0 0 0 0 0 0 0 0 0 0 0 0 0 0 0 0 0 0 0
0 0 0 0 0 0 0 0 0 0 0 0 0 0 0 0 0 0 0 0 0 0 0 0 0 0 0 0 0 0 0 0 0 0 0 0 0 0 0 0 0 0 0 0
0 0 0 0 0 0 0 0 0 0 0 0 0 0 0 0 0 0 0 0 0 0 0 0 0 0 0 0 0 0 0 0 0 0 0 0 0 0 0 0 0 0 0 0
0 0 0 0 0 0 0 0 0 0 0 0 0 0 0 0 0 0 0 0 0 0 0 0 0 0 0 0 0 0 0 0 0 0 0 0 0 0 0 0 0 0 0 0
0 0 0 0 0 0 0 0 0 0 0 0 0 0 0 0 0 0 0 0 0 0 0 0 0 0 0 0 0 0 0 0 0 0 0 0 0 0 0 0 0 0 0 0
0 0 0 0 0 0 0 0 0 0 0 0 0 0 0 0 0 0 0 0 0 0 0 0 0 0 0 0 0 0 0 0 0 0 0 0 0 0 0 0 0 0 0 0
0 0 0 0 0 0 0 0 0 0 0 0 0 0 0 0 0 0 0 0 0 0 0 0 0 0 0 0 0 0 0 0 0 0 0 0 0 0 0 0 0 0 0 0
0 4 4 2 0 0 0 0 0 0 0 0 0 0 0 0 0 0 0 0 0 0 0 0 0 0 0 0 0 0 0 0 0 0 0 0 0 0 0 0 0 0 0 0
1 8 18 20 6 0 0 0 0 5 6 0 0 0 0 0 0 0 0 0 0 0 0 0 0 0 0 0 0 0 0 0 0 0 0 0 0 0 0 0 0 0 0 0
0 2 1 0 2 1 2 1 0 0 0 0 0 0 0 0 0 0 0 0 0 0 0 0 0 0 0 0 0 0 0 0 0 0 0 0 0 0 0 0 0 0 0 0
0 0 0 0 0 0 0 0 0 0 0 0 0 0 0 0 0 0 0 0 0 0 0 0 0 0 0 0 0 0 0 0 0 0 0 0 0 0 0 0 0 0 0 0
0 3 0 0 0 0 0 0 0 0 0 0 0 0 3 0 0 0 0 0 0 0 0 0 0 0 0 0 0 0 0 0 0 0 0 0 0 0 0 0 0 0 0 0
0 0 0 0 0 0 0 0 0 0 0 1 0 0 0 0 0 0 0 0 0 0 0 0 0 0 0 0 0 0 0 0 0 0 0 0 0 0 0 0 0 0 0 0
0 0 0 0 0 0 0 0 0 0 0 0 0 0 0 0 0 0 0 0 0 0 0 2 0 0 0 0 0 0 0 0 0 0 0 0 0 0 0 0 0 0 0 0
0 0 0 0 0 0 0 0 0 0 0 0 0 0 0 0 0 0 0 0 0 0 1 0 0 0 0 0 0 0 0 0 0 0 0 0 0 0 0 0 0 0 0 0
0 0 0 0 0 0 0 0 0 0 0 0 0 0 0 0 0 0 0 0 0 0 0 0 0 0 0 0 0 0 0 0 0 0 0 0 0 0 0 0 0 0 0 0
0 0 0 0 0 0 0 0 0 0 0 0 0 0 0 0 0 0 0 0 0 0 0 0 0 0 0 0 0 0 0 1 0 0 0 0 0 0 0 0 0 0 0 0
0 0 0 0 0 0 0 0 0 0 0 0 0 0 0 0 0 0 0 0 0 0 0 0 0 0 0 0 0 0 0 0 0 0 0 0 0 0 0 0 0 0 0 0
0 0 0 0 0 0 0 0 0 0 0 0 0 0 0 0 0 0 0 0 0 0 0 0 0 0 0 0 0 0 0 0 0 1 1 0 0 0 0 0 0 0 0 0
0 0 0 0 0 0 0 0 0 0 0 0 0 0 0 0 0 0 0 0 0 0 0 0 0 0 0 0 0 0 0 0 0 0 1 0 0 0 0 0 0 1 0 0
0 0 0 0 0 0 0 0 0 0 0 0 0 0 0 0 0 0 0 0 0 0 0 0 0 0 0 0 0 0 0 0 0 0 0 0 0 0 0 0 0 0 0 1
CIN
-0 -0 -0 -0 -0 -0 -0 -0 -0 -0 -0 -0 -0 -0 -0 -0 -0 -0 -0 -0 -0 -0 -0 -0 -0 -0 -0 -0 -0 -0 -0 -0 -0 -0 -0 -0 -0 -0 -0 -0 -0 -0 -0 -0
-0 -0 -0 -0 -0 -0 -0 -0 -0 -0 -0 -0 -0 -0 -0 -0 -0 -0 -0 -0 -0 -0 -0 -0 -0 -0 -0 -0 -0 -0 -0 -0 -0 -0 -0 -0 -0 -0 -0 -0 -0 -0 -0 -0
-0 -0 -0 -0 -0 -0 -0 -0 -0 -0 -0 -0 -0 -0 -0 -0 -0 -0 -0 -0 -0 -0 -0 -0 -0 -0 -0 -0 -0 -0 -0 -0 -0 -0 -0 -0 -0 -0 -0 -0 -0 -0 -0 -0
-0 -0 -0 -0 -0 -0 -0 -0 -0 -0 -0 -0 -0 -0 -0 -0 -0 -0 -0 -0 -0 -0 -0 -0 -0 -0 -0 -0 -0 -0 -0 -0 -0 -0 -0 -0 -0 -0 -0 -0 -0 -0 -0 -0
-0 -0 -0 -0 -0 -0 -0 -0 -0 -0 -0 -0 -0 -0 -0 -0 -0 -0 -0 -0 -0 -0 -0 -0 -0 -0 -0 -0 -0 -0 -0 -0 -0 -0 -0 -0 -0 -0 -0 -0 -0 -0 -0 -0
-0 -0 -0 -0 -0 -0 -0 -0 -0 -0 -0 -0 -0 -0 -0 -0 -0 -0 -0 -0 -0 -0 -0 -0 -0 -0 -0 -0 -0 -0 -0 -0 -0 -0 -0 -0 -0 -0 -0 -0 -0 -0 -0 -0
-0 -0 -0 -0 -0 -0 -0 -0 -0 -0 -0 -0 -0 -0 -0 -0 -0 -0 -0 -0 -0 -0 -0 -0 -0 -0 -0 -0 -0 -0 -0 -0 -0 -0 -0 -0 -0 -0 -0 -0 -0 -0 -0 -0
-0 -0 -0 -0 -0 -0 -0 -0 -0 -0 -0 -0 -0 -0 -0 -0 -0 -0 -0 -0 -0 -0 -0 -0 -0 -0 -0 -0 -0 -0 -0 -0 -0 -0 -0 -0 -0 -0 -0 -0 -0 -0 -0 -0
-0 -0 -0 -0 -0 -0 -0 -0 -0 -0 -0 -0 -0 -0 -0 -0 -0 -0 -0 -0 -0 -0 -0 -0 -0 -0 -0 -0 -0 -0 -0 -0 -0 -0 -0 -0 -0 -0 -0 -0 -0 -0 -0 -0
-0 -0 -0 -0 -0 -0 -0 -0 -0 -0 -0 -0 -0 -0 -0 -0 -0 -0 -0 -0 -0 -0 -0 -0 -0 -0 -0 -0 -0 -0 -0 -0 -0 -0 -0 -0 -0 -0 -0 -0 -0 -0 -0 -0
-0 -0 -0 -0 -0 -0 -0 -0 -0 -0 -0 -0 -0 -0 -0 -0 -0 -0 -0 -0 -0 -0 -0 -0 -0 -0 -0 -0 -0 -0 -0 -0 -0 -0 -0 -0 -0 -0 -0 -0 -0 -0 -0 -0
-0 -0 -0 -0 -0 -0 -0 -0 -0 -0 -0 -0 -0 -0 -0 -0 -0 -0 -0 -0 -0 -0 -0 -0 -0 -0 -0 -0 -0 -0 -0 -0 -0 -0 -0 -0 -0 -0 -0 -0 -0 -0 -0 -0
-0 -17 -59 -9 -0 -0 -0 -0 -0 -0 -0 -0 -0 -0 -0 -0 -0 -0 -0 -0 -0 -0 -0 -0 -0 -0 -0 -0 -0 -0 -0 -0 -0 -0 -0 -0 -0 -0 -0 -0 -0 -0 -0 -0
-0 -2 -4 -2 -13 -0 -0 -0 -0 -9 -8 -0 -0 -0 -0 -0 -0 -0 -0 -0 -0 -0 -0 -0 -0 -0 -0 -0 -0 -0 -0 -0 -0 -0 -0 -0 -0 -0 -0 -0 -0 -0 -0 -0
-2 -4 -3 -1 -0 -0 -0 -0 -0 -0 -0 -0 -0 -0 -0 -0 -0 -0 -0 -0 -0 -0 -0 -0 -0 -0 -0 -0 -0 -0 -0 -0 -0 -0 -0 -0 -0 -0 -0 -0 -0 -0 -0 -0
-0 -0 -1 -0 -0 -0 -0 -0 -0 -0 -0 -0 -0 -0 -0 -0 -0 -0 -0 -0 -0 -0 -0 -0 -0 -0 -0 -0 -0 -0 -0 -0 -0 -0 -0 -0 -0 -0 -0 -0 -0 -0 -0 -0
-0 -0 -0 -0 -0 -0 -0 -0 -0 -0 -0 -0 -0 -0 -0 -0 -0 -0 -0 -0 -0 -0 -0 -0 -0 -0 -0 -0 -0 -0 -0 -0 -0 -0 -0 -0 -0 -0 -0 -0 -0 -0 -0 -0
-0 -0 -0 -0 -0 -0 -0 -0 -0 -0 -0 -0 -0 -0 -0 -0 -0 -0 -0 -0 -0 -0 -0 -0 -0 -0 -0 -0 -0 -0 -0 -0 -0 -0 -0 -0 -0 -0 -0 -0 -0 -0 -0 -0
-0 -0 -0 -0 -0 -0 -0 -0 -0 -0 -0 -0 -0 -0 -0 -0 -0 -0 -0 -0 -0 -0 -0 -0 -0 -0 -0 -0 -0 -0 -0 -0 -0 -0 -0 -0 -0 -0 -0 -0 -0 -0 -0 -0
-0 -0 -0 -0 -0 -0 -0 -0 -0 -0 -0 -0 -0 -0 -0 -0 -0 -0 -0 -0 -0 -0 -1 -0 -0 -0 -0 -0 -0 -0 -0 -0 -0 -0 -0 -0 -0 -0 -0 -0 -0 -0 -0 -0
-0 -0 -0 -0 -0 -0 -0 -0 -0 -0 -0 -0 -0 -0 -0 -0 -0 -0 -0 -0 -0 -0 -0 -0 -0 -0 -0 -0 -0 -0 -0 -0 -0 -0 -0 -0 -0 -0 -0 -0 -0 -0 -0 -0
-0 -0 -0 -0 -0 -0 -0 -0 -0 -0 -0 -0 -0 -0 -0 -0 -0 -0 -0 -0 -0 -0 -0 -0 -0 -0 -0 -0 -0 -0 -0 -0 -0 -0 -0 -0 -0 -0 -0 -0 -0 -0 -0 -0
-0 -0 -0 -0 -0 -0 -0 -0 -0 -0 -0 -0 -0 -0 -0 -0 -0 -0 -0 -0 -0 -0 -0 -0 -0 -0 -0 -0 -0 -0 -0 -0 -0 -0 -0 -0 -0 -0 -0 -0 -0 -0 -0 -0
-0 -0 -0 -0 -0 -0 -0 -0 -0 -0 -0 -0 -0 -0 -0 -0 -0 -0 -0 -0 -0 -0 -0 -0 -0 -0 -0 -0 -0 -0 -0 -0 -0 -0 -0 -0 -0 -0 -0 -0 -0 -0 -0 -0
-0 -0 -0 -0 -0 -0 -0 -0 -0 -0 -0 -0 -0 -0 -0 -0 -0 -0 -0 -0 -0 -0 -0 -0 -0 -0 -0 -0 -0 -0 -0 -0 -0 -0 -0 -0 -0 -0 -0 -0 -0 -0 -0 -0
-0 -0 -0 -0 -0 -0 -0 -0 -0 -0 -0 -0 -0 -0 -0 -0 -0 -0 -0 -0 -0 -0 -0 -0 -0 -0 -0 -0 -0 -0 -0 -0 -0 -0 -0 -0 -0 -0 -0 -0 -0 -0 -0 -0
Wind_Speed
23 25 24 22 24 29 32 34 32 34 37 41 33 30 29 28 33 28 29 31 38 41 45 40 27 25 23 21 20 21 20 19 19 19 19 19 20 20 19 19 18 17 15 14
28 30 24 31 30 30 33 35 35 45 43 39 30 36 31 27 28 33 35 29 27 26 49 49 33 26 22 21 20 20 20 19 20 19 19 19 19 19 19 18 18 17 16 15
32 35 27 28 32 36 35 38 40 37 46 41 51 41 29 22 19 21 26 22 21 23 49 49 36 29 24 21 19 19 18 18 19 19 18 19 18 20 19 19 19 18 17 15
36 33 31 32 34 31 42 35 41 43 44 47 36 62 30 32 23 23 17 12 14 34 37 38 34 29 23 22 20 19 18 18 19 19 19 21 21 21 21 20 19 18 17 16
33 31 31 33 31 28 38 35 36 37 41 44 35 37 41 31 42 23 18 18 23 21 35 41 36 31 27 24 21 18 18 18 18 19 20 21 21 20 19 19 19 19 18 17
37 32 32 35 34 28 29 34 35 36 36 43 37 35 63 33 27 30 34 42 38 36 40 40 35 32 30 23 19 16 16 17 17 19 21 22 22 21 20 19 20 19 19 18
36 36 33 31 38 32 29 35 42 42 40 48 32 38 45 47 41 40 46 44 48 46 43 41 42 38 28 23 19 17 16 17 16 18 20 21 21 21 21 20 20 20 20 20
46 56 35 27 27 35 32 31 39 49 54 60 45 58 58 48 45 40 42 38 38 42 42 40 35 34 30 23 20 17 16 17 16 16 18 19 21 21 23 23 22 21 21 21
47 56 37 34 32 31 38 43 40 51 50 55 59 62 65 52 45 35 30 32 40 40 41 36 30 30 25 21 18 17 18 18 19 19 19 21 23 24 25 25 24 24 23 22
42 56 49 43 37 40 40 36 47 43 53 60 52 60 60 57 52 50 43 38 38 37 33 33 30 25 20 17 14 14 20 24 22 22 25 28 29 28 27 27 28 27 26 24
36 43 54 45 47 52 46 49 47 48 50 64 67 60 59 58 50 48 42 39 39 38 51 47 35 29 27 26 26 29 31 34 34 30 29 32 33 34 31 31 31 30 28 27
43 42 59 66 46 39 41 49 47 54 59 54 60 60 50 57 52 50 55 54 55 56 49 37 38 39 38 41 39 38 40 42 42 37 36 35 34 33 34 33 33 32 31 30
37 45 52 47 50 41 45 46 46 49 55 66 73 72 51 59 69 61 56 53 50 49 48 47 46 50 51 50 48 47 45 43 41 38 38 39 38 36 35 35 34 32 32 32
40 49 58 66 58 63 65 55 54 53 62 68 66 66 57 62 67 70 67 55 47 43 42 43 44 46 47 47 48 48 47 42 41 38 38 39 39 39 39 38 36 34 32 32
38 54 50 53 50 51 56 58 59 62 61 62 62 62 56 60 64 58 55 51 50 49 48 49 49 50 50 48 47 48 48 47 43 42 39 38 37 37 38 38 37 36 34 34
36 53 54 59 57 54 58 56 54 56 58 58 59 66 54 46 46 48 43 46 50 52 51 51 51 50 50 49 49 49 49 51 50 49 46 41 40 37 35 36 36 35 35 35
47 50 53 68 62 62 68 62 64 64 61 64 69 52 46 45 45 44 39 42 46 48 50 51 50 50 50 51 52 51 53 53 52 50 48 46 42 40 38 36 36 38 38 37
55 56 53 67 63 73 59 47 46 49 44 39 37 37 40 43 45 44 36 46 47 49 48 49 48 51 53 54 54 55 55 53 52 50 50 46 43 41 39 37 39 37 37 36
39 44 50 56 61 61 61 51 50 51 50 39 43 47 49 49 52 45 45 49 51 50 49 47 52 53 54 53 54 56 55 52 51 50 47 46 45 44 42 41 41 39 37 35
33 34 44 49 60 66 49 43 41 43 58 41 43 47 48 48 58 60 53 53 53 51 49 56 56 56 55 55 55 55 57 53 50 49 47 43 40 41 42 40 38 35 33 33
45 43 49 52 56 52 40 40 39 54 55 46 42 44 48 53 52 58 58 55 50 52 55 55 56 57 55 54 56 57 56 54 50 49 46 42 40 39 38 36 31 29 29 29
43 45 47 46 52 59 36 42 47 46 47 45 43 44 49 51 52 53 55 54 55 55 54 52 54 53 55 54 54 57 56 53 51 50 48 44 41 38 37 34 32 26 27 28
47 41 50 44 46 42 49 51 45 42 46 42 43 46 48 51 53 51 54 56 55 55 55 54 54 58 56 55 54 58 57 55 53 51 51 46 42 38 36 32 28 26 27 30
43 40 44 44 46 47 45 44 46 45 41 41 44 47 47 51 51 53 53 54 56 56 58 56 59 62 62 60 59 59 58 55 57 56 51 46 45 41 35 31 28 27 26 29
41 37 41 47 47 48 48 44 42 39 37 44 44 45 47 46 51 50 53 54 55 57 58 59 63 66 69 65 64 60 58 58 60 58 54 53 48 44 38 36 35 33 33 32
36 41 44 49 47 48 47 46 41 42 44 43 45 49 47 46 51 52 55 54 55 58 60 62 64 66 70 69 68 62 59 58 60 61 56 53 48 47 41 40 40 37 37 37
Wind_Direction
296 290 283 280 283 298 300 300 298 303 307 306 298 283 274 274 263 274 271 267 260 259 260 297 292 287 280 274 267 263 255 248 244 241 239 245 240 242 244 248 245 243 246 248
293 278 280 295 296 294 295 296 296 302 304 303 290 272 291 288 275 263 261 261 262 280 270 278 298 293 281 275 267 264 255 249 237 238 238 257 249 254 247 247 243 241 243 245
279 292 293 289 291 295 292 294 298 296 306 304 303 275 296 299 277 272 264 275 276 272 280 280 299 297 289 281 272 262 253 246 240 240 245 262 263 269 256 247 246 243 239 243
289 295 289 289 290 291 292 298 298 300 304 304 310 279 309 312 301 309 296 301 313 307 302 302 302 301 296 291 286 273 264 256 249 238 236 239 246 251 255 248 246 241 238 241
292 298 297 291 292 296 295 304 301 302 299 302 302 305 314 318 311 320 321 321 320 315 304 296 304 306 301 295 290 279 273 264 255 240 238 237 241 249 259 251 247 245 243 244
289 297 296 297 299 295 302 302 301 299 299 292 296 298 297 313 318 321 320 315 313 312 304 300 304 307 304 298 292 280 269 263 255 243 239 234 239 251 254 253 249 247 249 247
297 294 297 296 295 298 296 295 296 294 290 288 301 295 287 301 307 309 311 313 310 309 307 305 301 302 302 296 290 287 274 264 254 241 238 237 241 243 243 248 250 249 251 252
296 290 295 300 292 297 292 287 287 291 289 290 292 286 291 301 305 309 312 315 321 321 319 311 309 308 302 297 291 287 280 275 263 241 236 240 245 250 255 254 254 252 250 252
294 289 297 294 296 293 294 286 292 287 287 288 287 287 290 296 300 308 315 317 322 325 329 329 322 314 309 304 299 291 287 281 272 259 251 247 252 254 258 259 259 260 261 259
294 291 293 293 292 287 286 295 289 289 289 286 285 287 288 292 295 298 299 306 314 322 331 338 337 333 325 317 313 306 294 283 277 270 267 267 263 261 260 258 257 259 262 259
296 291 286 292 287 287 289 285 286 288 284 284 286 283 287 292 297 297 299 304 306 305 307 309 310 313 315 308 302 292 287 282 278 275 275 274 270 265 263 259 258 259 260 258
291 290 287 284 293 290 291 287 287 283 286 284 284 282 287 291 296 297 294 296 296 300 304 302 305 306 302 297 295 289 286 281 283 281 276 274 271 266 263 260 259 259 257 258
293 289 290 293 290 290 287 287 285 286 287 283 283 284 289 290 289 290 294 299 300 301 298 297 298 301 297 294 292 291 285 285 288 282 278 276 271 268 265 263 263 260 257 257
292 286 285 284 287 291 289 290 290 287 285 285 283 289 289 290 289 289 291 299 300 301 305 305 303 303 303 302 301 298 296 292 291 288 279 274 271 269 267 268 264 262 257 255
293 286 288 291 295 295 295 294 293 288 287 285 290 290 296 295 294 294 294 299 298 298 299 300 301 302 302 302 303 302 303 299 294 290 285 277 274 272 269 266 266 264 258 258
298 291 294 289 292 293 292 292 291 289 292 293 293 293 305 307 304 300 301 302 301 301 300 299 300 301 304 306 305 306 305 303 296 290 287 284 279 276 270 268 266 263 259 259
292 291 291 287 291 294 288 289 291 291 291 291 291 295 302 305 305 303 304 309 307 305 305 304 303 303 305 306 305 304 304 304 301 294 287 284 282 276 273 270 266 263 261 262
287 288 289 288 292 285 294 300 299 296 300 302 300 304 308 305 302 303 302 305 305 306 304 304 306 305 305 305 305 304 304 304 304 300 290 286 283 280 276 271 268 265 263 261
283 286 289 288 287 291 293 298 299 297 294 301 301 302 304 304 300 296 301 302 303 304 303 302 302 303 304 306 305 303 305 303 303 301 298 291 285 282 278 274 271 269 266 264
296 288 285 290 289 289 294 302 305 301 288 301 302 303 305 307 301 296 305 305 302 303 301 300 300 302 304 304 304 303 301 300 299 302 299 299 293 286 282 279 275 272 269 266
291 292 287 288 289 292 300 305 311 293 294 306 304 303 303 301 300 300 301 302 304 303 302 301 302 302 304 304 301 299 299 297 298 299 300 297 295 291 288 284 280 274 269 266
292 293 292 294 291 290 305 306 302 303 304 302 303 303 304 305 304 304 303 302 302 302 303 305 303 303 300 301 302 300 296 297 299 296 293 294 293 292 288 287 282 276 271 265
289 291 294 290 292 300 303 302 305 306 302 302 302 304 305 305 304 304 303 302 302 302 302 302 300 296 299 301 300 296 295 299 298 294 290 291 291 289 285 283 283 278 271 269
293 293 291 294 295 300 302 302 305 305 301 303 305 306 307 304 305 305 304 303 302 301 299 300 298 297 295 295 296 296 297 297 294 290 291 291 288 286 283 281 279 274 269 268
294 300 297 294 298 302 301 302 306 306 305 305 307 308 308 308 307 307 306 305 304 303 301 301 298 296 293 297 297 298 298 295 292 291 290 286 284 283 280 276 274 273 270 268
295 293 294 294 301 301 302 305 309 306 307 308 308 307 308 309 307 308 306 306 306 305 304 302 300 298 295 294 295 296 294 292 290 288 288 287 283 281 279 275 273 272 273 272